DAL2153 KLAX-KSFO

Flight info

Callsign DAL2153
Flight time N/A
Altitude 36000
Route SUMMR2 STOKD SERFR SERFR4
Aircraft B738/M-SDE2E3FGHIRWXY/LB1

Departure

Time 2026-05-04 20:42
Airport Los Angeles International Airport (KLAX)

Arrival

Time N/A
Airport San Francisco International Airport (KSFO)
Time Latitude Longitude Altitude Speed Heading
2026-05-04 20:22 33.94487 -118.41587 120 ft 0 kts 83°
2026-05-04 20:31 33.94487 -118.41589 120 ft 1 kts 83°
2026-05-04 20:32 33.94485 -118.41606 120 ft 2 kts 83°
2026-05-04 20:32 33.94484 -118.41624 120 ft 1 kts 83°
2026-05-04 20:32 33.94483 -118.41636 120 ft 2 kts 78°
2026-05-04 20:32 33.94477 -118.41653 120 ft 2 kts 60°
2026-05-04 20:33 33.94468 -118.41667 119 ft 2 kts 45°
2026-05-04 20:33 33.94456 -118.41679 119 ft 2 kts 30°
2026-05-04 20:33 33.94443 -118.41685 118 ft 2 kts 14°
2026-05-04 20:33 33.94428 -118.41688 118 ft 2 kts 359°
2026-05-04 20:34 33.94420 -118.41688 118 ft 1 kts 351°
2026-05-04 20:34 33.94417 -118.41687 118 ft 0 kts 353°
2026-05-04 20:35 33.94418 -118.41687 118 ft 0 kts 353°
2026-05-04 20:35 33.94461 -118.41694 119 ft 10 kts 353°
2026-05-04 20:36 33.94525 -118.41704 120 ft 8 kts 353°
2026-05-04 20:36 33.94566 -118.41710 120 ft 0 kts 353°
2026-05-04 20:37 33.94570 -118.41710 120 ft 2 kts 353°
2026-05-04 20:37 33.94616 -118.41715 120 ft 7 kts
2026-05-04 20:37 33.94656 -118.41657 120 ft 13 kts 79°
2026-05-04 20:38 33.94667 -118.41549 120 ft 12 kts 83°
2026-05-04 20:38 33.94680 -118.41437 120 ft 13 kts 74°
2026-05-04 20:38 33.94747 -118.41392 121 ft 11 kts
2026-05-04 20:38 33.94792 -118.41316 123 ft 18 kts 82°
2026-05-04 20:39 33.94809 -118.41152 123 ft 19 kts 83°
2026-05-04 20:39 33.94826 -118.40993 123 ft 18 kts 83°
2026-05-04 20:39 33.94842 -118.40840 123 ft 18 kts 83°
2026-05-04 20:39 33.94857 -118.40685 120 ft 19 kts 84°
2026-05-04 20:40 33.94874 -118.40518 120 ft 21 kts 84°
2026-05-04 20:40 33.94893 -118.40335 117 ft 22 kts 83°
2026-05-04 20:40 33.94910 -118.40158 117 ft 12 kts 83°
2026-05-04 20:40 33.94912 -118.40136 116 ft 4 kts 83°
2026-05-04 20:41 33.94919 -118.40068 115 ft 10 kts 83°
2026-05-04 20:41 33.94933 -118.39965 113 ft 12 kts 69°
2026-05-04 20:41 33.95011 -118.39924 112 ft 14 kts 339°
2026-05-04 20:41 33.95032 -118.40050 114 ft 18 kts 262°
2026-05-04 20:42 33.94997 -118.40355 117 ft 72 kts 263°
2026-05-04 20:42 33.94907 -118.41251 124 ft 142 kts 262°
2026-05-04 20:42 33.94768 -118.42602 474 ft 172 kts 260°
2026-05-04 20:42 33.94585 -118.44067 1104 ft 192 kts 261°
2026-05-04 20:43 33.94419 -118.45716 1885 ft 204 kts 263°
2026-05-04 20:43 33.94316 -118.47465 2513 ft 218 kts 268°
2026-05-04 20:43 33.94279 -118.49318 3220 ft 228 kts 269°
2026-05-04 20:43 33.94224 -118.51270 4024 ft 234 kts 267°
2026-05-04 20:44 33.94086 -118.53202 4939 ft 234 kts 265°
2026-05-04 20:44 33.93916 -118.55115 5826 ft 234 kts 265°
2026-05-04 20:44 33.93742 -118.57098 6594 ft 240 kts 265°
2026-05-04 20:44 33.93583 -118.59109 7270 ft 251 kts 265°
2026-05-04 20:45 33.93423 -118.61263 7922 ft 263 kts 265°
2026-05-04 20:45 33.93251 -118.63454 8696 ft 269 kts 264°
2026-05-04 20:45 33.93077 -118.65674 9607 ft 269 kts 264°
2026-05-04 20:45 33.92897 -118.67933 10372 ft 275 kts 263°
2026-05-04 20:46 33.92711 -118.70293 10899 ft 290 kts 263°
2026-05-04 20:46 33.92515 -118.72772 11499 ft 303 kts 263°
2026-05-04 20:46 33.92313 -118.75360 11915 ft 321 kts 263°
2026-05-04 20:46 33.92097 -118.78134 12013 ft 342 kts 263°
2026-05-04 20:47 33.91868 -118.81026 11983 ft 349 kts 263°
2026-05-04 20:47 33.91689 -118.83942 11984 ft 354 kts 266°
2026-05-04 20:47 33.91686 -118.86945 12848 ft 356 kts 270°
2026-05-04 20:47 33.91787 -118.89893 13741 ft 356 kts 271°
2026-05-04 20:48 33.91914 -118.92861 14568 ft 359 kts 270°
2026-05-04 20:48 33.92035 -118.95839 15493 ft 362 kts 270°
2026-05-04 20:48 33.92242 -118.98857 16320 ft 365 kts 275°
2026-05-04 20:48 33.92813 -119.01846 17200 ft 370 kts 284°
2026-05-04 20:49 33.93823 -119.04722 17819 ft 382 kts 292°
2026-05-04 20:49 33.95152 -119.07555 18610 ft 387 kts 295°